Tracking 29892 objects as of 21-Nov-2024
HD Live streaming from Space Station
objects crossing your sky now

STARLINK-5630

Track STARLINK-5630 now!
10-day predictions
STARLINK-5630 is classified as:


NORAD ID: 55406
Int'l Code: 2023-014R
Perigee: 577.1 km
Apogee: 581.4 km
Inclination: 70.0 °
Period: 96.1 minutes
Semi major axis: 6950 km
RCS: Unknown
Launch date: January 31, 2023
Source: United States (US)
Launch site: AIR FORCE WESTERN TEST RANGE (AFWTR)
Your satellite tracking list
Your tracking list is empty




NASA's NSSDC Master Catalog

Two Line Element Set (TLE):
1 55406U 23014R   24325.57156018  .00001663  00000-0  14719-3 0  9990
2 55406  69.9984 180.0170 0003068 271.3843  88.6964 14.98321431100096
Source of the keplerian elements: AFSPC